Regional Weather Roundup
Issued by NWS

Home | Current Version | Previous Version | Text Only | Print | Product List | Glossary Off
Versions: 1 2 3 4 5 6 7 8 9 10 11 12 13 14 15 16 17 18 19 20 21 22 23 24 25 26 27 28 29 30 31 32 33 34 35 36 37 38 39 40 41 42 43 44 45 46 47 48 49 50

174
ASUS45 KPSR 270710
RWRAZ

ARIZONA HOURLY REGIONAL WEATHER ROUNDUP
NATIONAL WEATHER SERVICE PHOENIX AZ
1200 AM MST FRI MAY 27 2016

NOTE: FAIR INDICATES FEW OR NO CLOUDS BELOW 12,000 FEET WITH NO
SIGNIFICANT WEATHER AND/OR OBSTRUCTIONS TO VISIBILITY.

AZZ001>003-036-270800-
NORTHWEST ARIZONA

CITY           SKY/WX    TMP DP  RH WIND       PRES   REMARKS
BULLHEAD CITY  CLEAR     75  32  20 CALM      29.82S
KINGMAN        CLEAR     62  29  28 S12       29.93F
$$

AZZ004>008-015-016-018-270800-
NORTH CENTRAL ARIZONA

CITY           SKY/WX    TMP DP  RH WIND       PRES   REMARKS
GRAND CANYON   CLEAR     33  25  72 CALM      30.08F
WILLIAMS       CLEAR     37  27  65 S8        30.16S WCI  31
PRESCOTT       CLEAR     51  28  41 S9        30.03S
FLAGSTAFF      CLEAR     35  27  72 W5        30.09F WCI  31
PAYSON         CLEAR     54  27  35 CALM      30.05S
PAGE           PTCLDY    61  35  37 W3        29.95S
$$

AZZ009>014-017-270800-
NORTHEAST ARIZONA

CITY           SKY/WX    TMP DP  RH WIND       PRES   REMARKS
WINSLOW        CLEAR     51  29  42 W9        30.00S
SAINT JOHNS    PTCLDY    51  28  41 W8        30.02S
WINDOW ROCK    PTCLDY    43  27  53 S3        30.03S
SHOW LOW       CLOUDY    48  23  37 CALM      30.08S
$$

AZZ023-270800-
GREATER PHOENIX AREA

CITY           SKY/WX    TMP DP  RH WIND       PRES   REMARKS
PHOENIX        CLEAR     76  31  19 CALM      29.83F
BUCKEYE        CLEAR     72  32  23 CALM      29.86S
LUKE AFB       CLEAR     75  35  23 S7        29.83S
DEER VALLEY    CLEAR     73  30  20 CALM      29.85F
SCOTTSDALE     CLEAR     74  30  19 CALM      29.88S
MESA-GATEWAY   CLEAR     66  34  30 E5        29.87S
$$

AZZ027-028-270800-
SOUTHWEST MARICOPA COUNTY AND PINAL COUNTY

CITY           SKY/WX    TMP DP  RH WIND       PRES   REMARKS
CASA GRANDE    CLEAR     66  25  20 CALM      29.88S
GILA BEND      FAIR      71  27  19 SW9       29.84S
$$

AZZ503-504-507>509-270800-
SOUTHEAST ARIZONA

CITY           SKY/WX    TMP DP  RH WIND       PRES   REMARKS
TUCSON         CLEAR     66  27  23 W5        29.96R
DAVIS-MONTHAN  CLEAR     64  27  25 SW6       29.94S
NOGALES        CLEAR     54  22  28 CALM      29.99F
SIERRA VISTA   CLEAR     57  25  28 W9        30.04S
DOUGLAS        CLEAR     56  22  26 N10       30.00S
SAFFORD        CLEAR     63  25  23 NW9       29.92F
$$

AZZ020-021-025-026-031-270800-
SOUTHWEST ARIZONA

CITY           SKY/WX    TMP DP  RH WIND       PRES   REMARKS
YUMA           CLEAR     73  51  46 S3        29.85R
$$

CAZ031-033-041-043-047-048-061-270800-
SOUTHERN CALIFORNIA

CITY           SKY/WX    TMP DP  RH WIND       PRES   REMARKS
DOWNTOWN L.A.  CLEAR     60  54  80 CALM      29.97F
L.A. AIRPORT   MOCLDY    60  55  83 VRB3      29.98S
SAN DIEGO      CLOUDY    65  55  70 VRB3      30.01S
BURBANK        CLEAR     58  50  75 S3        29.97F
ONTARIO        CLEAR     59  51  75 W5        29.98S
RIVERSIDE      CLEAR     61  52  72 W3        29.98S
PALM SPRINGS     N/A    N/A N/A N/A MISG      29.84S
EL CENTRO NAS  CLEAR     72  47  40 SW8       29.84S
IMPERIAL       CLEAR     73  49  42 W9        29.82S
BLYTHE         CLEAR     78  39  24 SW7       29.81S
NEEDLES        CLEAR     82  29  14 SW14      29.80S
$$

NVZ020-UTZ003-270800-
SOUTHERN NEVADA-UTAH

CITY           SKY/WX    TMP DP  RH WIND       PRES   REMARKS
LAS VEGAS      PTCLDY    74  31  20 S7        29.81S
SALT LAKE CITY PTCLDY    57  40  52 SE10      29.96R
$$

NMZ009-TXZ055-270800-
NEW MEXICO-WEST TEXAS

CITY           SKY/WX    TMP DP  RH WIND       PRES   REMARKS
ALBUQUERQUE    PTCLDY    55  23  28 NW3       29.95S
EL PASO        CLEAR     70  14  11 NW9       29.90S
$$


........................KEY........................
SKY/WX - SKY CONDITION/WEATHER
TMP    - TEMPERATURE IN FAHRENHEIT
DP     - DEW POINT IN FAHRENHEIT
RH     - RELATIVE HUMIDITY IN PERCENT
WIND   - DIRECTION AND SPEED IN MILES PER HOUR (MPH)
VRB    - VARIABLE WIND DIRECTION
PRES   - MEAN SEA LEVEL PRESSURE IN INCHES OF MERCURY
         F - FALLING PRESSURE   R - RISING PRESSURE
         S - STEADY PRESSURE
VSB    - VISIBILITY IN MILES
HX     - HEAT INDEX IN FAHRENHEIT
WCI    - WIND CHILL INDEX IN FAHRENHEIT
TC     - TEMPERATURE IN CELSIUS WHICH IS ALSO KNOWN AS
         TEMPERATURE IN CENTIGRADE
AFB    - AIR FORCE BASE
         LUKE AFB IS LUKE AIR FORCE BASE
         DAVIS-MONTHAN IS DAVIS-MONTHAN AIR FORCE BASE
NAS    - NAVAL AIR STATION
         EL CENTRO NAS IS EL CENTRO NAVAL AIR STATION
N/A    - NOT AVAILABLE





USA.gov is the U.S. government's official web portal to all federal, state and local government web resources and services.